Time,TemperatureF,DewpointF,PressureIn,WindDirection,WindDirectionDegrees,WindSpeedMPH,WindSpeedGustMPH,Humidity,HourlyPrecipIn,Conditions,Clouds,dailyrainin,SoftwareType,DateUTC
2013-01-22 00:00:00,24.0,11.3,29.98,West,261,4.0,5.0,58,0.00,,,0.00,Wunderground v.1.15,2013-01-22 05:00:00,
2013-01-22 00:01:00,24.0,11.7,29.98,WSW,242,4.0,5.0,59,0.00,,,0.00,Wunderground v.1.15,2013-01-22 05:01:00,
2013-01-22 00:07:00,23.9,11.6,29.98,WSW,257,4.0,7.0,59,0.00,,,0.00,Wunderground v.1.15,2013-01-22 05:07:00,
2013-01-22 00:08:00,23.9,11.6,29.98,WSW,248,4.0,7.0,59,0.00,,,0.00,Wunderground v.1.15,2013-01-22 05:08:00,
2013-01-22 00:10:00,23.8,11.5,29.98,West,259,4.0,4.0,59,0.00,,,0.00,Wunderground v.1.15,2013-01-22 05:10:00,
2013-01-22 00:15:00,23.6,11.4,29.98,WSW,258,4.0,9.0,59,0.00,,,0.00,Wunderground v.1.15,2013-01-22 05:15:00,
2013-01-22 00:20:00,23.5,11.3,29.98,WSW,257,4.0,8.0,59,0.00,,,0.00,Wunderground v.1.15,2013-01-22 05:20:00,
2013-01-22 00:26:00,23.4,10.8,29.98,North,9,4.0,9.0,58,0.00,,,0.00,Wunderground v.1.15,2013-01-22 05:26:00,
2013-01-22 00:32:00,23.4,10.8,29.98,WSW,252,6.0,8.0,58,0.00,,,0.00,Wunderground v.1.15,2013-01-22 05:32:00,
2013-01-22 00:37:00,23.2,10.2,29.98,West,265,5.0,8.0,57,0.00,,,0.00,Wunderground v.1.15,2013-01-22 05:37:00,
2013-01-22 00:43:00,23.1,10.5,29.98,SW,235,4.0,5.0,58,0.00,,,0.00,Wunderground v.1.15,2013-01-22 05:43:00,
2013-01-22 00:48:00,22.9,10.3,29.98,WSW,253,3.0,8.0,58,0.00,,,0.00,Wunderground v.1.15,2013-01-22 05:48:00,
2013-01-22 00:54:00,22.8,10.2,29.98,West,259,4.0,7.0,58,0.00,,,0.00,Wunderground v.1.15,2013-01-22 05:54:00,
2013-01-22 01:00:00,22.7,10.1,29.98,West,259,5.0,5.0,58,0.00,,,0.00,Wunderground v.1.15,2013-01-22 06:00:00,
2013-01-22 01:06:00,22.6,10.0,29.98,WSW,254,4.0,5.0,58,0.00,,,0.00,Wunderground v.1.15,2013-01-22 06:06:00,
2013-01-22 01:11:00,22.4,10.2,29.98,West,281,3.0,10.0,59,0.00,,,0.00,Wunderground v.1.15,2013-01-22 06:11:00,
2013-01-22 01:17:00,22.4,10.2,29.98,WSW,257,4.0,11.0,59,0.00,,,0.00,Wunderground v.1.15,2013-01-22 06:17:00,
2013-01-22 01:22:00,22.3,10.1,29.98,WSW,246,5.0,5.0,59,0.00,,,0.00,Wunderground v.1.15,2013-01-22 06:22:00,
2013-01-22 01:28:00,22.1,8.8,29.98,South,180,4.0,9.0,56,0.00,,,0.00,Wunderground v.1.15,2013-01-22 06:28:00,
2013-01-22 01:33:00,21.9,7.8,29.98,WSW,246,4.0,4.0,54,0.00,,,0.00,Wunderground v.1.15,2013-01-22 06:33:00,
2013-01-22 01:39:00,21.8,6.8,29.98,West,267,6.0,16.0,52,0.00,,,0.00,Wunderground v.1.15,2013-01-22 06:39:00,
2013-01-22 01:44:00,21.6,6.7,29.98,NW,305,7.0,7.0,52,0.00,,,0.00,Wunderground v.1.15,2013-01-22 06:44:00,
2013-01-22 01:49:00,21.5,6.6,29.98,East,98,5.0,7.0,52,0.00,,,0.00,Wunderground v.1.15,2013-01-22 06:49:00,
2013-01-22 01:54:00,21.3,6.4,29.98,West,270,5.0,8.0,52,0.00,,,0.00,Wunderground v.1.15,2013-01-22 06:54:00,
2013-01-22 01:59:00,21.2,6.7,29.98,West,261,4.0,9.0,53,0.00,,,0.00,Wunderground v.1.15,2013-01-22 06:59:00,
2013-01-22 02:05:00,21.1,5.8,29.98,WNW,286,6.0,11.0,51,0.00,,,0.00,Wunderground v.1.15,2013-01-22 07:05:00,
2013-01-22 02:10:00,21.0,6.1,29.98,SW,229,7.0,7.0,52,0.00,,,0.00,Wunderground v.1.15,2013-01-22 07:10:00,
2013-01-22 02:16:00,20.8,5.1,29.98,WSW,242,8.0,21.0,50,0.00,,,0.00,Wunderground v.1.15,2013-01-22 07:16:00,
2013-01-22 02:22:00,20.7,5.0,29.98,West,276,8.0,11.0,50,0.00,,,0.00,Wunderground v.1.15,2013-01-22 07:22:00,
2013-01-22 02:27:00,20.5,4.8,29.98,WNW,290,7.0,11.0,50,0.00,,,0.00,Wunderground v.1.15,2013-01-22 07:27:00,
2013-01-22 02:32:00,20.4,5.1,29.98,West,261,7.0,8.0,51,0.00,,,0.00,Wunderground v.1.15,2013-01-22 07:32:00,
2013-01-22 02:38:00,20.2,4.9,29.98,SW,222,6.0,16.0,51,0.00,,,0.00,Wunderground v.1.15,2013-01-22 07:38:00,
2013-01-22 02:44:00,20.1,4.4,29.98,WSW,257,7.0,8.0,50,0.00,,,0.00,Wunderground v.1.15,2013-01-22 07:44:00,
2013-01-22 02:49:00,19.9,4.2,29.98,West,280,6.0,10.0,50,0.00,,,0.00,Wunderground v.1.15,2013-01-22 07:49:00,
2013-01-22 02:55:00,19.7,4.0,29.98,WSW,245,4.0,8.0,50,0.00,,,0.00,Wunderground v.1.15,2013-01-22 07:55:00,
2013-01-22 03:00:00,19.7,4.0,29.98,West,275,4.0,7.0,50,0.00,,,0.00,Wunderground v.1.15,2013-01-22 08:00:00,
2013-01-22 03:06:00,19.7,3.6,29.98,SW,233,7.0,13.0,49,0.00,,,0.00,Wunderground v.1.15,2013-01-22 08:06:00,
2013-01-22 03:12:00,19.5,3.9,29.98,West,263,8.0,9.0,50,0.00,,,0.00,Wunderground v.1.15,2013-01-22 08:12:00,
2013-01-22 03:18:00,19.2,4.0,29.98,WSW,239,6.0,9.0,51,0.00,,,0.00,Wunderground v.1.15,2013-01-22 08:18:00,
2013-01-22 03:24:00,19.0,3.8,29.98,WSW,253,6.0,8.0,51,0.00,,,0.00,Wunderground v.1.15,2013-01-22 08:24:00,
2013-01-22 03:30:00,18.9,4.1,29.98,West,261,4.0,6.0,52,0.00,,,0.00,Wunderground v.1.15,2013-01-22 08:30:00,
2013-01-22 03:36:00,18.8,4.1,29.98,West,266,3.0,6.0,52,0.00,,,0.00,Wunderground v.1.15,2013-01-22 08:36:00,
2013-01-22 03:42:00,18.6,4.3,29.98,West,271,5.0,15.0,53,0.00,,,0.00,Wunderground v.1.15,2013-01-22 08:42:00,
2013-01-22 03:48:00,18.5,4.2,29.98,WNW,298,7.0,15.0,53,0.00,,,0.00,Wunderground v.1.15,2013-01-22 08:48:00,
2013-01-22 03:54:00,18.3,4.0,29.98,WSW,258,6.0,14.0,53,0.00,,,0.00,Wunderground v.1.15,2013-01-22 08:54:00,
2013-01-22 04:00:00,18.3,4.0,29.98,WSW,254,6.0,6.0,53,0.00,,,0.00,Wunderground v.1.15,2013-01-22 09:00:00,
2013-01-22 04:06:00,18.2,4.3,29.98,WSW,245,5.0,8.0,54,0.00,,,0.00,Wunderground v.1.15,2013-01-22 09:06:00,
2013-01-22 04:12:00,18.0,4.1,29.98,West,261,5.0,12.0,54,0.00,,,0.00,Wunderground v.1.15,2013-01-22 09:12:00,
2013-01-22 04:17:00,18.0,4.1,29.98,West,259,4.0,12.0,54,0.00,,,0.00,Wunderground v.1.15,2013-01-22 09:17:00,
2013-01-22 04:23:00,17.9,4.0,29.98,WSW,242,5.0,6.0,54,0.00,,,0.00,Wunderground v.1.15,2013-01-22 09:23:00,
2013-01-22 04:28:00,17.8,3.9,29.98,West,275,6.0,10.0,54,0.00,,,0.00,Wunderground v.1.15,2013-01-22 09:28:00,
2013-01-22 04:33:00,17.7,3.8,29.98,WSW,254,8.0,11.0,54,0.00,,,0.00,Wunderground v.1.15,2013-01-22 09:33:00,
2013-01-22 04:39:00,17.6,3.8,29.98,WSW,257,7.0,11.0,54,0.00,,,0.00,Wunderground v.1.15,2013-01-22 09:39:00,
2013-01-22 04:44:00,17.5,4.1,29.98,West,261,6.0,8.0,55,0.00,,,0.00,Wunderground v.1.15,2013-01-22 09:44:00,
2013-01-22 04:50:00,17.5,4.1,29.98,West,261,6.0,6.0,55,0.00,,,0.00,Wunderground v.1.15,2013-01-22 09:50:00,
2013-01-22 04:56:00,17.3,3.9,29.98,West,262,6.0,7.0,55,0.00,,,0.00,Wunderground v.1.15,2013-01-22 09:56:00,
2013-01-22 05:02:00,17.2,3.8,29.98,West,271,4.0,5.0,55,0.00,,,0.00,Wunderground v.1.15,2013-01-22 10:02:00,
2013-01-22 05:07:00,17.1,4.1,29.98,West,267,3.0,5.0,56,0.00,,,0.00,Wunderground v.1.15,2013-01-22 10:07:00,
2013-01-22 05:12:00,17.1,4.1,29.98,WSW,252,3.0,7.0,56,0.00,,,0.00,Wunderground v.1.15,2013-01-22 10:12:00,
2013-01-22 05:18:00,17.0,4.4,29.98,WSW,254,4.0,7.0,57,0.00,,,0.00,Wunderground v.1.15,2013-01-22 10:18:00,
2013-01-22 05:24:00,16.9,4.3,29.98,West,267,4.0,6.0,57,0.00,,,0.00,Wunderground v.1.15,2013-01-22 10:24:00,
2013-01-22 05:30:00,16.7,4.1,29.98,West,259,4.0,4.0,57,0.00,,,0.00,Wunderground v.1.15,2013-01-22 10:30:00,
2013-01-22 05:35:00,16.7,4.1,29.98,West,273,4.0,7.0,57,0.00,,,0.00,Wunderground v.1.15,2013-01-22 10:35:00,
2013-01-22 05:41:00,16.6,4.0,29.98,West,259,6.0,6.0,57,0.00,,,0.00,Wunderground v.1.15,2013-01-22 10:41:00,
2013-01-22 05:47:00,16.6,4.0,29.98,West,267,6.0,8.0,57,0.00,,,0.00,Wunderground v.1.15,2013-01-22 10:47:00,
2013-01-22 05:52:00,16.6,4.0,29.98,West,263,6.0,10.0,57,0.00,,,0.00,Wunderground v.1.15,2013-01-22 10:52:00,
2013-01-22 05:58:00,16.5,3.9,29.98,WSW,252,6.0,11.0,57,0.00,,,0.00,Wunderground v.1.15,2013-01-22 10:58:00,
2013-01-22 06:03:00,16.4,4.2,29.98,WNW,285,4.0,7.0,58,0.00,,,0.00,Wunderground v.1.15,2013-01-22 11:03:00,
2013-01-22 06:09:00,16.2,4.0,29.98,WSW,241,4.0,7.0,58,0.00,,,0.00,Wunderground v.1.15,2013-01-22 11:09:00,
2013-01-22 06:15:00,16.1,3.5,29.98,WNW,287,4.0,7.0,57,0.00,,,0.00,Wunderground v.1.15,2013-01-22 11:15:00,
2013-01-22 06:21:00,16.0,3.4,29.98,WSW,237,5.0,5.0,57,0.00,,,0.00,Wunderground v.1.15,2013-01-22 11:21:00,
2013-01-22 06:26:00,15.9,3.3,29.98,WSW,247,6.0,11.0,57,0.00,,,0.00,Wunderground v.1.15,2013-01-22 11:26:00,
2013-01-22 06:32:00,15.9,3.3,29.98,West,264,7.0,7.0,57,0.00,,,0.00,Wunderground v.1.15,2013-01-22 11:32:00,
2013-01-22 06:37:00,15.7,3.1,29.98,West,263,5.0,7.0,57,0.00,,,0.00,Wunderground v.1.15,2013-01-22 11:37:00,
2013-01-22 06:43:00,15.6,3.1,29.98,NNE,25,4.0,9.0,57,0.00,,,0.00,Wunderground v.1.15,2013-01-22 11:43:00,
2013-01-22 06:48:00,15.6,3.1,29.98,WSW,238,6.0,9.0,57,0.00,,,0.00,Wunderground v.1.15,2013-01-22 11:48:00,
2013-01-22 06:54:00,15.5,3.0,29.98,WSW,242,6.0,8.0,57,0.00,,,0.00,Wunderground v.1.15,2013-01-22 11:54:00,
2013-01-22 06:59:00,15.5,3.0,29.98,SW,234,6.0,11.0,57,0.00,,,0.00,Wunderground v.1.15,2013-01-22 11:59:00,
2013-01-22 07:05:00,15.4,2.9,29.98,WSW,250,6.0,7.0,57,0.00,,,0.00,Wunderground v.1.15,2013-01-22 12:05:00,
2013-01-22 07:11:00,15.3,2.8,29.98,West,275,5.0,8.0,57,0.00,,,0.00,Wunderground v.1.15,2013-01-22 12:11:00,
2013-01-22 07:16:00,15.3,2.8,29.98,West,261,5.0,8.0,57,0.00,,,0.00,Wunderground v.1.15,2013-01-22 12:16:00,
2013-01-22 07:21:00,15.2,2.7,29.98,West,260,5.0,10.0,57,0.00,,,0.00,Wunderground v.1.15,2013-01-22 12:21:00,
2013-01-22 07:27:00,15.2,2.7,29.98,West,263,5.0,10.0,57,0.00,,,0.00,Wunderground v.1.15,2013-01-22 12:27:00,
2013-01-22 07:32:00,15.0,2.5,29.98,SW,228,3.0,6.0,57,0.00,,,0.00,Wunderground v.1.15,2013-01-22 12:32:00,
2013-01-22 07:38:00,15.1,2.6,29.98,WSW,250,4.0,10.0,57,0.00,,,0.00,Wunderground v.1.15,2013-01-22 12:38:00,
2013-01-22 07:44:00,15.1,2.6,29.98,WSW,251,5.0,12.0,57,0.00,,,0.00,Wunderground v.1.15,2013-01-22 12:44:00,
2013-01-22 07:49:00,15.2,2.7,29.98,West,279,4.0,12.0,57,0.00,,,0.00,Wunderground v.1.15,2013-01-22 12:49:00,
2013-01-22 07:55:00,15.2,2.7,29.98,WSW,242,4.0,13.0,57,0.00,,,0.00,Wunderground v.1.15,2013-01-22 12:55:00,
2013-01-22 08:00:00,15.3,2.8,29.98,WNW,283,4.0,8.0,57,0.00,,,0.00,Wunderground v.1.15,2013-01-22 13:00:00,
2013-01-22 08:07:00,15.4,2.5,29.98,WSW,248,5.0,8.0,56,0.00,,,0.00,Wunderground v.1.15,2013-01-22 13:07:00,
2013-01-22 08:12:00,15.5,3.0,29.98,WSW,249,6.0,10.0,57,0.00,,,0.00,Wunderground v.1.15,2013-01-22 13:12:00,
2013-01-22 08:18:00,15.6,3.1,29.98,West,263,5.0,10.0,57,0.00,,,0.00,Wunderground v.1.15,2013-01-22 13:18:00,
2013-01-22 08:24:00,15.7,3.1,29.98,West,268,6.0,12.0,57,0.00,,,0.00,Wunderground v.1.15,2013-01-22 13:24:00,
2013-01-22 08:29:00,15.7,3.1,29.98,WNW,288,7.0,14.0,57,0.00,,,0.00,Wunderground v.1.15,2013-01-22 13:29:00,
2013-01-22 08:35:00,15.8,3.2,29.98,SW,232,7.0,10.0,57,0.00,,,0.00,Wunderground v.1.15,2013-01-22 13:35:00,
2013-01-22 08:40:00,15.9,3.0,29.98,West,261,9.0,9.0,56,0.00,,,0.00,Wunderground v.1.15,2013-01-22 13:40:00,
2013-01-22 08:46:00,15.9,3.0,29.98,SW,220,8.0,11.0,56,0.00,,,0.00,Wunderground v.1.15,2013-01-22 13:46:00,
2013-01-22 08:52:00,16.2,3.2,29.98,WSW,250,6.0,7.0,56,0.00,,,0.00,Wunderground v.1.15,2013-01-22 13:52:00,
2013-01-22 08:58:00,16.2,3.2,29.98,West,269,6.0,12.0,56,0.00,,,0.00,Wunderground v.1.15,2013-01-22 13:58:00,
2013-01-22 09:03:00,16.3,2.9,29.98,West,260,7.0,10.0,55,0.00,,,0.00,Wunderground v.1.15,2013-01-22 14:03:00,
2013-01-22 09:09:00,16.5,3.1,29.98,SSW,209,7.0,10.0,55,0.00,,,0.00,Wunderground v.1.15,2013-01-22 14:09:00,
2013-01-22 09:15:00,16.9,3.1,29.98,WSW,239,6.0,14.0,54,0.00,,,0.00,Wunderground v.1.15,2013-01-22 14:15:00,
2013-01-22 09:20:00,16.7,2.5,29.98,WNW,288,7.0,9.0,53,0.00,,,0.00,Wunderground v.1.15,2013-01-22 14:20:00,
2013-01-22 09:26:00,16.7,2.9,29.98,WSW,257,8.0,11.0,54,0.00,,,0.00,Wunderground v.1.15,2013-01-22 14:26:00,
2013-01-22 09:32:00,16.8,2.2,29.98,WSW,240,7.0,16.0,52,0.00,,,0.00,Wunderground v.1.15,2013-01-22 14:32:00,
2013-01-22 09:37:00,16.6,2.0,29.98,SW,236,8.0,16.0,52,0.00,,,0.00,Wunderground v.1.15,2013-01-22 14:37:00,
2013-01-22 09:43:00,16.9,2.3,29.98,WSW,255,9.0,10.0,52,0.00,,,0.00,Wunderground v.1.15,2013-01-22 14:43:00,
2013-01-22 09:48:00,17.0,2.4,29.98,WSW,254,7.0,10.0,52,0.00,,,0.00,Wunderground v.1.15,2013-01-22 14:48:00,
2013-01-22 09:54:00,16.8,2.2,29.98,WSW,248,6.0,14.0,52,0.00,,,0.00,Wunderground v.1.15,2013-01-22 14:54:00,
2013-01-22 09:59:00,16.4,1.4,29.98,West,263,7.0,14.0,51,0.00,,,0.00,Wunderground v.1.15,2013-01-22 14:59:00,
2013-01-22 10:05:00,16.0,1.4,29.98,WSW,240,7.0,15.0,52,0.00,,,0.00,Wunderground v.1.15,2013-01-22 15:05:00,
2013-01-22 10:11:00,16.4,2.2,29.98,WSW,254,6.0,7.0,53,0.00,,,0.00,Wunderground v.1.15,2013-01-22 15:11:00,
2013-01-22 10:16:00,16.8,2.2,29.98,WSW,249,6.0,7.0,52,0.00,,,0.00,Wunderground v.1.15,2013-01-22 15:16:00,
2013-01-22 10:21:00,17.0,2.4,29.98,West,263,4.0,4.0,52,0.00,,,0.00,Wunderground v.1.15,2013-01-22 15:21:00,
2013-01-22 10:27:00,17.6,2.5,29.98,WSW,240,2.0,4.0,51,0.00,,,0.00,Wunderground v.1.15,2013-01-22 15:27:00,
2013-01-22 10:32:00,18.3,2.7,29.98,WSW,242,3.0,13.0,50,0.00,,,0.00,Wunderground v.1.15,2013-01-22 15:32:00,
2013-01-22 10:37:00,18.2,2.6,29.98,WSW,254,6.0,13.0,50,0.00,,,0.00,Wunderground v.1.15,2013-01-22 15:37:00,
2013-01-22 10:43:00,18.4,2.8,29.98,West,265,6.0,9.0,50,0.00,,,0.00,Wunderground v.1.15,2013-01-22 15:43:00,
2013-01-22 10:48:00,18.4,2.8,29.98,West,275,5.0,9.0,50,0.00,,,0.00,Wunderground v.1.15,2013-01-22 15:48:00,
2013-01-22 10:54:00,18.7,3.1,29.98,WSW,242,5.0,9.0,50,0.00,,,0.00,Wunderground v.1.15,2013-01-22 15:54:00,
2013-01-22 10:59:00,18.7,2.2,29.98,West,267,6.0,10.0,48,0.00,,,0.00,Wunderground v.1.15,2013-01-22 15:59:00,
2013-01-22 11:04:00,18.0,2.0,29.98,West,267,6.0,11.0,49,0.00,,,0.00,Wunderground v.1.15,2013-01-22 16:04:00,
2013-01-22 11:09:00,17.1,0.3,29.98,SW,234,7.0,11.0,47,0.00,,,0.00,Wunderground v.1.15,2013-01-22 16:09:00,
2013-01-22 11:15:00,16.9,0.6,29.98,WNW,285,9.0,14.0,48,0.00,,,0.00,Wunderground v.1.15,2013-01-22 16:15:00,
2013-01-22 11:20:00,17.1,1.2,29.98,WSW,248,8.0,8.0,49,0.00,,,0.00,Wunderground v.1.15,2013-01-22 16:20:00,
2013-01-22 11:26:00,18.0,2.0,29.98,West,259,8.0,13.0,49,0.00,,,0.00,Wunderground v.1.15,2013-01-22 16:26:00,
2013-01-22 11:31:00,17.7,2.6,29.98,West,280,10.0,14.0,51,0.00,,,0.00,Wunderground v.1.15,2013-01-22 16:31:00,
2013-01-22 11:37:00,17.3,2.2,29.98,WSW,257,9.0,14.0,51,0.00,,,0.00,Wunderground v.1.15,2013-01-22 16:37:00,
2013-01-22 11:43:00,17.1,1.2,29.98,WSW,256,6.0,9.0,49,0.00,,,0.00,Wunderground v.1.15,2013-01-22 16:43:00,
2013-01-22 11:48:00,17.6,2.1,29.98,WSW,245,6.0,9.0,50,0.00,,,0.00,Wunderground v.1.15,2013-01-22 16:48:00,
2013-01-22 11:54:00,18.7,1.8,29.98,WSW,246,5.0,7.0,47,0.00,,,0.00,Wunderground v.1.15,2013-01-22 16:54:00,
2013-01-22 11:59:00,18.8,1.4,29.98,West,265,6.0,13.0,46,0.00,,,0.00,Wunderground v.1.15,2013-01-22 16:59:00,
2013-01-22 12:04:00,18.4,1.0,29.98,WSW,250,7.0,16.0,46,0.00,,,0.00,Wunderground v.1.15,2013-01-22 17:04:00,
2013-01-22 12:10:00,18.7,1.8,29.98,West,265,6.0,6.0,47,0.00,,,0.00,Wunderground v.1.15,2013-01-22 17:10:00,
2013-01-22 12:15:00,18.6,0.3,29.98,WNW,286,6.0,13.0,44,0.00,,,0.00,Wunderground v.1.15,2013-01-22 17:15:00,
2013-01-22 12:20:00,18.2,0.9,29.98,WNW,295,7.0,7.0,46,0.00,,,0.00,Wunderground v.1.15,2013-01-22 17:20:00,
2013-01-22 12:26:00,17.6,0.3,29.98,WSW,251,6.0,14.0,46,0.00,,,0.00,Wunderground v.1.15,2013-01-22 17:26:00,
2013-01-22 12:32:00,18.0,-0.3,29.98,WSW,252,5.0,6.0,44,0.00,,,0.00,Wunderground v.1.15,2013-01-22 17:32:00,
2013-01-22 12:38:00,18.1,0.3,29.98,WSW,240,4.0,6.0,45,0.00,,,0.00,Wunderground v.1.15,2013-01-22 17:38:00,
2013-01-22 12:43:00,18.1,0.8,29.98,NW,314,4.0,8.0,46,0.00,,,0.00,Wunderground v.1.15,2013-01-22 17:43:00,
2013-01-22 12:48:00,18.6,0.7,29.98,West,270,6.0,8.0,45,0.00,,,0.00,Wunderground v.1.15,2013-01-22 17:48:00,
2013-01-22 12:54:00,18.1,-0.7,29.98,West,272,8.0,9.0,43,0.00,,,0.00,Wunderground v.1.15,2013-01-22 17:54:00,
2013-01-22 12:59:00,18.3,0.0,29.98,West,260,8.0,10.0,44,0.00,,,0.00,Wunderground v.1.15,2013-01-22 17:59:00,
2013-01-22 13:05:00,18.3,0.5,29.98,West,272,6.0,7.0,45,0.00,,,0.00,Wunderground v.1.15,2013-01-22 18:05:00,
2013-01-22 13:10:00,18.4,1.0,29.98,WSW,245,4.0,5.0,46,0.00,,,0.00,Wunderground v.1.15,2013-01-22 18:10:00,
2013-01-22 13:16:00,18.4,-0.4,29.98,SW,226,6.0,13.0,43,0.00,,,0.00,Wunderground v.1.15,2013-01-22 18:16:00,
2013-01-22 13:21:00,18.4,-0.4,29.98,West,281,8.0,8.0,43,0.00,,,0.00,Wunderground v.1.15,2013-01-22 18:21:00,
2013-01-22 13:26:00,18.5,-1.3,29.98,WSW,250,9.0,19.0,41,0.00,,,0.00,Wunderground v.1.15,2013-01-22 18:26:00,
2013-01-22 13:31:00,19.0,0.1,29.98,NNW,332,7.0,7.0,43,0.00,,,0.00,Wunderground v.1.15,2013-01-22 18:31:00,
2013-01-22 13:37:00,18.0,-1.8,29.98,SW,230,6.0,16.0,41,0.00,,,0.00,Wunderground v.1.15,2013-01-22 18:37:00,
2013-01-22 13:42:00,18.3,-1.0,29.98,SSW,205,9.0,15.0,42,0.00,,,0.00,Wunderground v.1.15,2013-01-22 18:42:00,
2013-01-22 13:48:00,18.1,-1.7,29.98,West,273,9.0,16.0,41,0.00,,,0.00,Wunderground v.1.15,2013-01-22 18:48:00,
2013-01-22 13:54:00,18.0,-1.3,29.98,North,360,10.0,13.0,42,0.00,,,0.00,Wunderground v.1.15,2013-01-22 18:54:00,
2013-01-22 13:59:00,18.0,-0.8,29.98,West,276,9.0,26.0,43,0.00,,,0.00,Wunderground v.1.15,2013-01-22 18:59:00,
2013-01-22 14:04:00,18.2,-0.6,29.98,SW,223,8.0,10.0,43,0.00,,,0.00,Wunderground v.1.15,2013-01-22 19:04:00,
2013-01-22 14:10:00,18.9,0.1,29.98,West,269,5.0,6.0,43,0.00,,,0.00,Wunderground v.1.15,2013-01-22 19:10:00,
2013-01-22 14:15:00,18.5,-0.8,29.98,WSW,248,7.0,15.0,42,0.00,,,0.00,Wunderground v.1.15,2013-01-22 19:15:00,
2013-01-22 14:20:00,17.9,-0.9,29.98,SW,234,9.0,9.0,43,0.00,,,0.00,Wunderground v.1.15,2013-01-22 19:20:00,
2013-01-22 14:26:00,17.7,-1.0,29.98,West,263,10.0,11.0,43,0.00,,,0.00,Wunderground v.1.15,2013-01-22 19:26:00,
2013-01-22 14:32:00,17.8,-1.5,29.98,West,261,10.0,10.0,42,0.00,,,0.00,Wunderground v.1.15,2013-01-22 19:32:00,
2013-01-22 14:37:00,18.0,-1.3,29.98,SW,234,8.0,14.0,42,0.00,,,0.00,Wunderground v.1.15,2013-01-22 19:37:00,
2013-01-22 14:42:00,18.0,-0.8,29.98,West,276,8.0,9.0,43,0.00,,,0.00,Wunderground v.1.15,2013-01-22 19:42:00,
2013-01-22 14:47:00,18.3,-0.5,29.98,West,277,8.0,9.0,43,0.00,,,0.00,Wunderground v.1.15,2013-01-22 19:47:00,
2013-01-22 14:52:00,18.2,-0.6,29.98,WSW,245,7.0,10.0,43,0.00,,,0.00,Wunderground v.1.15,2013-01-22 19:52:00,
2013-01-22 14:57:00,18.2,-0.6,29.98,WSW,248,7.0,14.0,43,0.00,,,0.00,Wunderground v.1.15,2013-01-22 19:57:00,
2013-01-22 15:03:00,17.7,-1.0,29.98,West,260,7.0,12.0,43,0.00,,,0.00,Wunderground v.1.15,2013-01-22 20:03:00,
2013-01-22 15:09:00,17.9,-0.4,29.98,SW,232,6.0,12.0,44,0.00,,,0.00,Wunderground v.1.15,2013-01-22 20:09:00,
2013-01-22 15:14:00,17.6,-1.6,27.54,West,267,7.0,14.0,42,0.00,,,0.00,Wunderground v.1.15,2013-01-22 20:14:00,
2013-01-22 15:20:00,16.9,-1.8,27.56,WSW,243,9.0,9.0,43,0.00,,,0.00,Wunderground v.1.15,2013-01-22 20:20:00,
2013-01-22 15:26:00,16.6,-2.0,27.56,WNW,288,7.0,12.0,43,0.00,,,0.00,Wunderground v.1.15,2013-01-22 20:26:00,
2013-01-22 15:32:00,16.9,-0.8,27.56,West,264,6.0,7.0,45,0.00,,,0.00,Wunderground v.1.15,2013-01-22 20:32:00,
2013-01-22 15:38:00,17.6,-0.2,27.56,West,272,4.0,7.0,45,0.00,,,0.00,Wunderground v.1.15,2013-01-22 20:38:00,
2013-01-22 15:44:00,17.7,-1.0,27.56,WNW,289,4.0,9.0,43,0.00,,,0.00,Wunderground v.1.15,2013-01-22 20:44:00,
2013-01-22 15:49:00,17.5,-1.2,27.56,SW,227,5.0,14.0,43,0.00,,,0.00,Wunderground v.1.15,2013-01-22 20:49:00,
2013-01-22 15:55:00,17.7,-1.5,27.56,SSW,198,5.0,8.0,42,0.00,,,0.00,Wunderground v.1.15,2013-01-22 20:55:00,
2013-01-22 16:00:00,17.9,-1.4,27.56,West,273,5.0,8.0,42,0.00,,,0.00,Wunderground v.1.15,2013-01-22 21:00:00,
2013-01-22 16:06:00,17.6,-1.1,27.56,WSW,250,6.0,15.0,43,0.00,,,0.00,Wunderground v.1.15,2013-01-22 21:06:00,
2013-01-22 16:11:00,17.5,-1.2,27.56,WSW,241,6.0,7.0,43,0.00,,,0.00,Wunderground v.1.15,2013-01-22 21:11:00,
2013-01-22 16:17:00,17.2,-1.0,27.56,West,263,5.0,16.0,44,0.00,,,0.00,Wunderground v.1.15,2013-01-22 21:17:00,
2013-01-22 16:22:00,16.9,-0.8,27.56,WSW,258,5.0,7.0,45,0.00,,,0.00,Wunderground v.1.15,2013-01-22 21:22:00,
2013-01-22 16:27:00,16.8,-1.4,27.56,WSW,254,4.0,7.0,44,0.00,,,0.00,Wunderground v.1.15,2013-01-22 21:27:00,
2013-01-22 16:32:00,16.7,-1.5,27.56,WNW,287,5.0,9.0,44,0.00,,,0.00,Wunderground v.1.15,2013-01-22 21:32:00,
2013-01-22 16:37:00,16.6,-1.1,27.56,West,263,4.0,9.0,45,0.00,,,0.00,Wunderground v.1.15,2013-01-22 21:37:00,
2013-01-22 16:42:00,16.4,-1.3,27.56,WSW,244,2.0,11.0,45,0.00,,,0.00,Wunderground v.1.15,2013-01-22 21:42:00,
2013-01-22 16:47:00,16.1,-1.5,27.56,West,270,4.0,14.0,45,0.00,,,0.00,Wunderground v.1.15,2013-01-22 21:47:00,
2013-01-22 16:52:00,15.9,-1.7,27.56,SW,232,8.0,15.0,45,0.00,,,0.00,Wunderground v.1.15,2013-01-22 21:52:00,
2013-01-22 16:58:00,15.8,-1.4,27.56,WSW,240,8.0,15.0,46,0.00,,,0.00,Wunderground v.1.15,2013-01-22 21:58:00,
2013-01-22 17:03:00,15.7,-1.4,27.56,West,259,7.0,8.0,46,0.00,,,0.00,Wunderground v.1.15,2013-01-22 22:03:00,
2013-01-22 17:09:00,15.5,-1.2,27.56,West,281,5.0,8.0,47,0.00,,,0.00,Wunderground v.1.15,2013-01-22 22:09:00,
2013-01-22 17:14:00,15.4,-1.3,27.56,WSW,250,4.0,9.0,47,0.00,,,0.00,Wunderground v.1.15,2013-01-22 22:14:00,
2013-01-22 17:20:00,15.4,-2.2,27.56,West,262,6.0,6.0,45,0.00,,,0.00,Wunderground v.1.15,2013-01-22 22:20:00,
2013-01-22 17:25:00,15.4,-2.2,27.56,West,269,7.0,11.0,45,0.00,,,0.00,Wunderground v.1.15,2013-01-22 22:25:00,
2013-01-22 17:30:00,15.3,-2.3,27.56,West,263,6.0,6.0,45,0.00,,,0.00,Wunderground v.1.15,2013-01-22 22:30:00,
2013-01-22 17:35:00,15.3,-2.3,27.56,WSW,239,5.0,8.0,45,0.00,,,0.00,Wunderground v.1.15,2013-01-22 22:35:00,
2013-01-22 17:41:00,15.3,-2.8,27.56,WSW,252,6.0,9.0,44,0.00,,,0.00,Wunderground v.1.15,2013-01-22 22:41:00,
2013-01-22 17:47:00,15.2,-2.4,27.56,West,273,5.0,9.0,45,0.00,,,0.00,Wunderground v.1.15,2013-01-22 22:47:00,
2013-01-22 17:52:00,15.2,-2.4,27.56,West,271,5.0,6.0,45,0.00,,,0.00,Wunderground v.1.15,2013-01-22 22:52:00,
2013-01-22 17:58:00,15.1,-2.5,27.56,WSW,238,5.0,8.0,45,0.00,,,0.00,Wunderground v.1.15,2013-01-22 22:58:00,
2013-01-22 18:03:00,14.9,-2.2,27.56,WSW,252,4.0,5.0,46,0.00,,,0.00,Wunderground v.1.15,2013-01-22 23:03:00,
2013-01-22 18:09:00,14.8,-1.8,27.56,West,263,3.0,11.0,47,0.00,,,0.00,Wunderground v.1.15,2013-01-22 23:09:00,
2013-01-22 18:14:00,14.7,-1.9,27.56,SW,221,3.0,5.0,47,0.00,,,0.00,Wunderground v.1.15,2013-01-22 23:14:00,
2013-01-22 18:20:00,14.6,-1.6,27.56,WSW,242,2.0,5.0,48,0.00,,,0.00,Wunderground v.1.15,2013-01-22 23:20:00,
2013-01-22 18:25:00,14.6,-1.1,27.56,West,259,4.0,7.0,49,0.00,,,0.00,Wunderground v.1.15,2013-01-22 23:25:00,
2013-01-22 18:31:00,14.5,-1.2,27.56,West,280,4.0,4.0,49,0.00,,,0.00,Wunderground v.1.15,2013-01-22 23:31:00,
2013-01-22 18:37:00,14.4,-0.9,27.56,WSW,243,3.0,8.0,50,0.00,,,0.00,Wunderground v.1.15,2013-01-22 23:37:00,
2013-01-22 18:43:00,14.3,-0.6,27.56,West,262,3.0,5.0,51,0.00,,,0.00,Wunderground v.1.15,2013-01-22 23:43:00,
2013-01-22 18:48:00,14.3,-0.6,27.56,West,262,3.0,6.0,51,0.00,,,0.00,Wunderground v.1.15,2013-01-22 23:48:00,
2013-01-22 18:54:00,14.3,-0.6,27.56,West,259,3.0,8.0,51,0.00,,,0.00,Wunderground v.1.15,2013-01-22 23:54:00,
2013-01-22 19:00:00,14.3,-0.6,27.56,West,275,3.0,5.0,51,0.00,,,0.00,Wunderground v.1.15,2013-01-23 00:00:00,
2013-01-22 19:06:00,14.3,-0.1,27.56,SW,219,4.0,8.0,52,0.00,,,0.00,Wunderground v.1.15,2013-01-23 00:06:00,
2013-01-22 19:12:00,14.2,0.2,27.56,WSW,251,4.0,6.0,53,0.00,,,0.00,Wunderground v.1.15,2013-01-23 00:12:00,
2013-01-22 19:17:00,14.2,0.2,27.56,West,272,4.0,6.0,53,0.00,,,0.00,Wunderground v.1.15,2013-01-23 00:17:00,
2013-01-22 19:22:00,14.1,0.1,27.56,WSW,244,2.0,5.0,53,0.00,,,0.00,Wunderground v.1.15,2013-01-23 00:22:00,
2013-01-22 19:28:00,14.3,-0.1,27.56,WSW,254,4.0,11.0,52,0.00,,,0.00,Wunderground v.1.15,2013-01-23 00:28:00,
2013-01-22 19:33:00,14.2,-0.6,27.56,West,268,6.0,10.0,51,0.00,,,0.00,Wunderground v.1.15,2013-01-23 00:33:00,
2013-01-22 19:39:00,14.2,-1.1,27.56,WNW,290,6.0,10.0,50,0.00,,,0.00,Wunderground v.1.15,2013-01-23 00:39:00,
2013-01-22 19:44:00,14.3,-1.4,27.56,WSW,238,7.0,12.0,49,0.00,,,0.00,Wunderground v.1.15,2013-01-23 00:44:00,
2013-01-22 19:50:00,14.1,-1.6,27.56,West,263,6.0,6.0,49,0.00,,,0.00,Wunderground v.1.15,2013-01-23 00:50:00,
2013-01-22 19:55:00,14.0,-1.7,27.56,West,263,5.0,11.0,49,0.00,,,0.00,Wunderground v.1.15,2013-01-23 00:55:00,
2013-01-22 20:00:00,14.0,-1.7,27.56,West,261,6.0,6.0,49,0.00,,,0.00,Wunderground v.1.15,2013-01-23 01:00:00,
2013-01-22 20:06:00,13.9,-1.3,27.56,West,267,5.0,12.0,50,0.00,,,0.00,Wunderground v.1.15,2013-01-23 01:06:00,
2013-01-22 20:12:00,13.8,-1.4,27.56,WSW,242,5.0,5.0,50,0.00,,,0.00,Wunderground v.1.15,2013-01-23 01:12:00,
2013-01-22 20:18:00,13.7,-1.5,27.56,WSW,252,6.0,11.0,50,0.00,,,0.00,Wunderground v.1.15,2013-01-23 01:18:00,
2013-01-22 20:24:00,13.5,-1.3,27.56,WSW,255,5.0,7.0,51,0.00,,,0.00,Wunderground v.1.15,2013-01-23 01:24:00,
2013-01-22 20:30:00,13.5,-1.3,27.56,WSW,245,4.0,4.0,51,0.00,,,0.00,Wunderground v.1.15,2013-01-23 01:30:00,
2013-01-22 20:35:00,13.5,-0.9,27.56,West,266,4.0,6.0,52,0.00,,,0.00,Wunderground v.1.15,2013-01-23 01:35:00,
2013-01-22 20:40:00,13.3,-1.1,27.56,NW,319,3.0,5.0,52,0.00,,,0.00,Wunderground v.1.15,2013-01-23 01:40:00,
2013-01-22 20:46:00,13.4,-1.4,27.56,West,270,4.0,8.0,51,0.00,,,0.00,Wunderground v.1.15,2013-01-23 01:46:00,
2013-01-22 20:51:00,13.3,-1.1,27.56,WSW,248,5.0,5.0,52,0.00,,,0.00,Wunderground v.1.15,2013-01-23 01:51:00,
2013-01-22 20:56:00,13.1,-1.3,27.56,SW,217,4.0,9.0,52,0.00,,,0.00,Wunderground v.1.15,2013-01-23 01:56:00,
2013-01-22 21:02:00,13.2,-1.6,27.56,West,259,5.0,5.0,51,0.00,,,0.00,Wunderground v.1.15,2013-01-23 02:02:00,
2013-01-22 21:07:00,13.1,-1.7,27.56,WNW,291,5.0,5.0,51,0.00,,,0.00,Wunderground v.1.15,2013-01-23 02:07:00,
2013-01-22 21:13:00,12.9,-1.4,27.56,WNW,300,4.0,6.0,52,0.00,,,0.00,Wunderground v.1.15,2013-01-23 02:13:00,
2013-01-22 21:18:00,12.9,-1.4,27.56,WSW,248,4.0,7.0,52,0.00,,,0.00,Wunderground v.1.15,2013-01-23 02:18:00,
2013-01-22 21:24:00,12.9,-1.9,27.56,West,265,6.0,12.0,51,0.00,,,0.00,Wunderground v.1.15,2013-01-23 02:24:00,
2013-01-22 21:29:00,12.9,-1.9,27.56,WSW,257,7.0,12.0,51,0.00,,,0.00,Wunderground v.1.15,2013-01-23 02:29:00,
2013-01-22 21:35:00,12.8,-1.9,27.56,WSW,241,7.0,10.0,51,0.00,,,0.00,Wunderground v.1.15,2013-01-23 02:35:00,
2013-01-22 21:40:00,12.7,-1.6,27.56,WSW,254,4.0,4.0,52,0.00,,,0.00,Wunderground v.1.15,2013-01-23 02:40:00,
2013-01-22 21:46:00,12.6,-1.7,27.56,NW,323,3.0,9.0,52,0.00,,,0.00,Wunderground v.1.15,2013-01-23 02:46:00,
2013-01-22 21:51:00,12.5,-1.8,27.56,West,269,4.0,4.0,52,0.00,,,0.00,Wunderground v.1.15,2013-01-23 02:51:00,
2013-01-22 21:57:00,12.5,-1.4,27.56,West,275,3.0,8.0,53,0.00,,,0.00,Wunderground v.1.15,2013-01-23 02:57:00,
2013-01-22 22:03:00,12.5,-1.4,27.56,WSW,244,4.0,6.0,53,0.00,,,0.00,Wunderground v.1.15,2013-01-23 03:03:00,
2013-01-22 22:09:00,12.5,-1.0,27.56,WSW,253,4.0,7.0,54,0.00,,,0.00,Wunderground v.1.15,2013-01-23 03:09:00,
2013-01-22 22:15:00,12.5,-1.0,27.56,WSW,252,5.0,8.0,54,0.00,,,0.00,Wunderground v.1.15,2013-01-23 03:15:00,
2013-01-22 22:20:00,12.5,-1.0,27.56,West,268,5.0,5.0,54,0.00,,,0.00,Wunderground v.1.15,2013-01-23 03:20:00,
2013-01-22 22:25:00,12.3,-1.6,27.56,WSW,252,6.0,8.0,53,0.00,,,0.00,Wunderground v.1.15,2013-01-23 03:25:00,
2013-01-22 22:31:00,12.2,-1.7,27.56,WSW,256,6.0,11.0,53,0.00,,,0.00,Wunderground v.1.15,2013-01-23 03:31:00,
2013-01-22 22:36:00,12.1,-1.8,27.56,SW,236,5.0,11.0,53,0.00,,,0.00,Wunderground v.1.15,2013-01-23 03:36:00,
2013-01-22 22:42:00,12.0,-1.9,27.56,WSW,253,3.0,5.0,53,0.00,,,0.00,Wunderground v.1.15,2013-01-23 03:42:00,
2013-01-22 22:48:00,11.9,-2.4,27.56,WSW,248,3.0,6.0,52,0.00,,,0.00,Wunderground v.1.15,2013-01-23 03:48:00,
2013-01-22 22:54:00,11.8,-2.9,27.56,WSW,237,4.0,10.0,51,0.00,,,0.00,Wunderground v.1.15,2013-01-23 03:54:00,
2013-01-22 23:00:00,11.8,-3.3,27.56,SW,228,5.0,5.0,50,0.00,,,0.00,Wunderground v.1.15,2013-01-23 04:00:00,
2013-01-22 23:06:00,11.7,-3.4,27.56,NNW,338,5.0,7.0,50,0.00,,,0.00,Wunderground v.1.15,2013-01-23 04:06:00,
2013-01-22 23:12:00,11.6,-3.5,27.56,WSW,256,5.0,7.0,50,0.00,,,0.00,Wunderground v.1.15,2013-01-23 04:12:00,
2013-01-22 23:17:00,11.6,-3.5,27.56,SW,230,5.0,10.0,50,0.00,,,0.00,Wunderground v.1.15,2013-01-23 04:17:00,
2013-01-22 23:22:00,11.6,-3.5,27.56,WSW,242,5.0,20.0,50,0.00,,,0.00,Wunderground v.1.15,2013-01-23 04:22:00,
2013-01-22 23:28:00,11.6,-3.9,27.56,West,266,6.0,20.0,49,0.00,,,0.00,Wunderground v.1.15,2013-01-23 04:28:00,
2013-01-22 23:33:00,11.5,-3.6,27.56,WSW,250,5.0,6.0,50,0.00,,,0.00,Wunderground v.1.15,2013-01-23 04:33:00,
2013-01-22 23:39:00,11.4,-3.7,27.56,WSW,250,4.0,6.0,50,0.00,,,0.00,Wunderground v.1.15,2013-01-23 04:39:00,
2013-01-22 23:44:00,11.3,-3.8,27.56,WSW,245,3.0,5.0,50,0.00,,,0.00,Wunderground v.1.15,2013-01-23 04:44:00,
2013-01-22 23:49:00,11.2,-3.4,27.56,West,267,2.0,7.0,51,0.00,,,0.00,Wunderground v.1.15,2013-01-23 04:49:00,
2013-01-22 23:54:00,11.2,-3.4,27.56,West,273,2.0,6.0,51,0.00,,,0.00,Wunderground v.1.15,2013-01-23 04:54:00,